Tracking 30701 objects as of 14-Jun-2025
HD Live streaming from Space Station
objects crossing your sky now

JILIN-01 KUANFU 02B 5

Track JILIN-01 KUANFU 02B 5 now!
10-day predictions


NORAD ID: 61193
Int'l Code: 2024-169E
Perigee: 537.6 km
Apogee: 549.5 km
Inclination: 97.6 °
Period: 95.4 minutes
Semi major axis: 6914 km
RCS: Unknown
Launch date: September 20, 2024
Source: People's Republic of China (PRC)
Launch site: Taiyaun Space Center, China (TSC)
Your satellite tracking list
Your tracking list is empty




NASA's NSSDC Master Catalog

Two Line Element Set (TLE):
1 61193U 24169E   25165.53540733  .00005592  00000-0  34855-3 0  9990
2 61193  97.5831 254.7174 0008595  99.5781 260.6419 15.09917475 40360
Source of the keplerian elements: AFSPC